Home > Time Zones > World Clock > Weather > Spain > Palma > Past weeks

Flag for Spain Weather past 2 weeks in Palma, Majorca, Spain

Now
79 °F

Scattered clouds.


Feels Like: 80 °F
Forecast: 69 / 78 °F
Wind: 9 mph from Northeast

Location: Palma De Mallorca / Son San Juan

Current Time: Sep 5, 2015 at 3:21:56 PM

Latest Report: Sep 5, 2015 at 3:00 PM


Visibility: N/A

Pressure: 30.09 "Hg

Humidity: 54%

Dew point: 61 °F

Location of PalmaLocation

Historic Weather in Palma — Graph

°F

Palma temperature yesterday

Maximum temperature yesterday: 81 °F (at 3:00 PM)
Minimum temperature yesterday: 64 °F (at 11:00 AM)
Average temperature yesterday: 74 °F

Past Weeks' High & Low Weather Summary

 TemperatureHumidityPressure
High91 °F (Aug 22, 1:00 PM)100% (Aug 22, 4:30 AM)30.12 "Hg (Aug 22, 4:30 AM)
Low64 °F (Sep 4, 11:00 AM)34% (Aug 22, 2:00 PM)29.77 "Hg (Aug 23, 6:00 AM)
Average79 °F73%29.98 "Hg
* Reported Aug 21 2:00 PM — Sep 5 2:00 PM, Palma, Weather by CustomWeather, © 2015

Note: Actual official high and low records may vary slightly from our data, if they occured in-between our weather recording intervals... More about our weather records

Advertising

Palma weather history for previous 24 hours

 ConditionsComfort  
Time TempWeatherWind HumidityBarometerVisibility
2:00 PM
Sat, Sep 5
79 °FScattered clouds.6 mph54%30.09 "HgN/A
1:30 PM79 °FScattered clouds.5 mph58%30.09 "HgN/A
12:30 PM77 °FScattered clouds.9 mph57%30.09 "HgN/A
12:00 PM77 °FPassing clouds.9 mph61%30.09 "HgN/A
11:30 AM77 °FPassing clouds.10 mph61%30.09 "HgN/A
11:00 AM75 °FPassing clouds.13 mph61%30.09 "HgN/A
10:30 AM75 °FPassing clouds.14 mph61%30.07 "HgN/A
10:00 AM73 °FPassing clouds.12 mph65%30.07 "HgN/A
9:30 AM73 °FPassing clouds.10 mph69%30.07 "HgN/A
9:00 AM72 °FPassing clouds.1 mph73%30.07 "HgN/A
8:30 AM70 °FPassing clouds.5 mph78%30.04 "HgN/A
8:00 AM66 °FPassing clouds.5 mph88%30.04 "HgN/A
7:30 AMN/APassing clouds.6 mphN/A30.04 "HgN/A
7:00 AMN/APassing clouds.3 mphN/A30.01 "HgN/A
6:30 AMN/APassing clouds.5 mphN/A30.01 "HgN/A
6:00 AMN/APassing clouds.6 mphN/A30.01 "HgN/A
5:30 AMN/APassing clouds.7 mphN/A29.98 "HgN/A
5:00 AMN/APassing clouds.7 mphN/A30.01 "HgN/A
4:30 AMN/APassing clouds.7 mphN/A29.98 "HgN/A
4:00 AMN/APassing clouds.7 mphN/A30.01 "HgN/A
3:30 AMN/APassing clouds.5 mphN/A29.98 "HgN/A
3:00 AMN/APassing clouds.6 mphN/A29.98 "HgN/A
2:30 AMN/APassing clouds.7 mphN/A29.98 "HgN/A
2:00 AMN/APassing clouds.8 mphN/A29.98 "HgN/A
1:30 AMN/APassing clouds.12 mphN/A29.95 "HgN/A
1:00 AMN/APassing clouds.14 mphN/A29.95 "HgN/A
12:30 AMN/APassing clouds.15 mphN/A29.95 "HgN/A
12:00 AMN/APassing clouds.12 mphN/A29.98 "HgN/A
11:30 PM
Fri, Sep 4
N/APassing clouds.13 mphN/A29.98 "HgN/A
11:00 PMN/APassing clouds.12 mphN/A29.98 "HgN/A
10:30 PMN/APassing clouds.13 mphN/A29.98 "HgN/A
10:00 PMN/APartly cloudy.13 mphN/A29.98 "HgN/A
9:30 PMN/APartly cloudy.14 mphN/A29.95 "HgN/A
9:00 PMN/ABroken clouds.17 mphN/A29.92 "HgN/A
8:30 PMN/ABroken clouds.16 mphN/A29.92 "HgN/A
8:00 PMN/ALight rain.16 mphN/A29.92 "HgN/A
7:30 PMN/A9 mphN/AN/A3 mi
7:00 PM70 °FStrong thunderstorms. More clouds than sun.22 mph94%29.89 "Hg0 mi
6:30 PM72 °FThunderstorms. Broken clouds.20 mph88%29.83 "Hg4 mi
6:00 PM73 °FRain. Scattered clouds.20 mph83%29.86 "HgN/A
5:30 PM79 °FBroken clouds.14 mph70%29.86 "HgN/A
5:00 PM77 °FRain showers. Scattered clouds.15 mph74%29.86 "HgN/A
4:30 PM81 °FScattered clouds.16 mph66%29.86 "HgN/A
4:00 PM81 °FScattered clouds.18 mph66%29.89 "HgN/A
3:30 PM79 °FScattered clouds.16 mph70%29.89 "HgN/A
3:00 PM81 °FScattered clouds.17 mph70%29.89 "HgN/A
Weather by CustomWeather, © 2015

See weather overviewHow to use our weather pages